Acadiana Regional Airport
KARA : now visible

Airfield :











YOU CAN JOIN US ON...

 
LOGIN :

Register | Disclaimer

   EN    FR    IT 

 









Legend :    VFR   Marginal VFR   IFR   Intensive IFR   Very Intensive IFR
Visi :
Ceiling :
>= 8 km
>= 3000ft
5 to 8 km
1000 to 3000 ft
1500m to 5 km
500 to 1000 ft
800 to 1500m
200 to 500 ft
< 800m
< 200 ft
Symbols :   Thunderstorms  Fog  Heavy snow  Heavy precipitations  Wind > 20 kt






- Airport Elevation : 24 ft


KARA - Acadiana Regional

CURRENT METAR :
  • 211853Z 03010G21KT 10SM CLR 18/05 A3021 RMK AO2 SLP229 T01780050

EXPIRED METARs :
  • 211753Z 02016G24KT 10SM CLR 17/05 A3023 RMK AO2 SLP235 T01720050 10172 20100 58003
  • 211653Z 36017G25KT 10SM CLR 16/05 A3024 RMK AO2 SLP238 T01560050

TAF KARA
Valid from the 21 at 18:00 until the 22 at 18:00 UTC


211720Z 2118/2218 02015G24KT P6SM SKC
FM220100 04007KT P6SM SKC
FM221400 09010KT P6SM SKC
KZHU FIR / North America



MET'MAP, your aeronautical weather chart ! - Copyright ORBIFLY December 2007 - Disclaimer

ORBIFLY MET'MAP TEAM :

Programming & Development : Alexandra Zaïnal
Concept & original design : Baudouin d'Aumeries
Assistance for programming : Marc-Olivier Méhu
Technical & hardware support : Manuel Goepfert

Contact : metmap@orbifly.com




SOURCES & CREDITS :

   NOAA       Earth
Advisory